Location: Newark
(33.6333°S, 78.8500°W)
Time: 09:48:22
(UTC+00:00)

Tiros 1 despin weight - Pass Details

Date: 26 September 2019
Orbit: 593 x 643 km, 48.2° (Epoch: 19 October)

Event Time Altitude Azimuth Distance (km) Brightness Sun altitude
Rises 10:02:45 0° 236° (SW) 2,946 - -12.6°
Exits shadow 10:05:01 10° 239° (WSW) 2,074 ? -12.1°
Reaches altitude 10° 10:05:07 10° 239° (WSW) 2,038 ? -12.1°
Maximum altitude 10:09:44 58° 318° (NW) 751 ? -11.2°
Drops below altitude 10° 10:14:21 10° 36° (NE) 2,032 ? -10.2°
Sets 10:16:42 0° 40° (NE) 2,936 ? -9.7°
